Tracking 28790 objects as of 19-Apr-2024
HD Live streaming from Space Station
objects crossing your sky now

DELTA 1 DEB

Track DELTA 1 DEB now!
10-day predictions


NORAD ID: 7065
Int'l Code: 1973-086BH
Perigee: 1,500.3 km
Apogee: 1,580.3 km
Inclination: 101.8 °
Period: 116.7 minutes
Semi major axis: 7911 km
RCS: 0.0791 m2 (small)
Launch date: November 6, 1973
Source: United States (US)
Launch site: AIR FORCE WESTERN TEST RANGE (AFWTR)

Note: This is SATELLITE DEBRIS
Your satellite tracking list
Your tracking list is empty




NASA's NSSDC Master Catalog

Two Line Element Set (TLE):
1 07065U 73086BH  24109.42519573  .00000404  00000-0  36085-2 0  9996
2 07065 101.7867 102.0342 0050593 100.3452  68.8475 12.33758659266583
Source of the keplerian elements: AFSPC